Toulouse, France

2:48 AM CEST on May 23, 2017 (GMT +0200)
Blagnac

Weather History for LFBO - August, 2013

Change the Weather History Date:

Wednesday, August 21, 2013

  Actual Average Record
Temperature  
Mean Temperature 72 °F -  
Max Temperature 88 °F 76 °F 100 °F (2011)
Min Temperature 55 °F 57 °F 53 °F (2014)
Cooling Degree Days 6    
Growing Degree Days 22 (Base 50)    
Moisture  
Dew Point 50 °F    
Average Humidity 53    
Maximum Humidity 94    
Minimum Humidity 14    
Precipitation  
Precipitation 0.00 in 0.06 in - ()
Sea Level Pressure  
Sea Level Pressure 30.10 in    
Wind  
Wind Speed 4 mph ()    
Max Wind Speed 12 mph    
Max Gust Speed -    
Visibility 6.5 miles    
Events      
Averages and records for this station are not official NWS values.
T = Trace of Precipitation, MM = Missing Value Source: Averaged Metar Reports

Daily Weather History Graph

Daily Weather History Graph

Search for Another Location

Airport or City:

Trip Planner

Search our weather history database for the weather conditions in past years. The results will help you decide how hot, cold, wet, or windy it might be!

Date:

Astronomy

Aug. 21, 2013 Rise Set
Actual Time 7:05 AM CEST 8:48 PM CEST
Civil Twilight 6:35 AM CEST 9:18 PM CEST
Nautical Twilight 5:58 AM CEST 9:55 PM CEST
Astronomical Twilight 5:18 AM CEST 10:35 PM CEST
Moon 8:44 PM CEST (8/21) 7:30 AM CEST (8/21)
Length of Visible Light 14h 43m
Length of Day
13h 42m
Full, 100% of the Moon is Illuminated
Aug 21
Full
Aug 28
Last Quarter
Sep 5
New
Sep 12
First Quarter
Sep 19
Full

Hourly Weather History & Observations

Time (CEST) Temp. Dew Point Humidity Pressure Visibility Wind Dir Wind Speed Gust Speed Precip Events Conditions
12:00 AM 68.0 °F 50.0 °F 52% 30.18 in 6.2 mi Variable 2.3 mph - N/A   Unknown
12:30 AM 64.4 °F 51.8 °F 64% 30.18 in 6.2 mi South 4.6 mph - N/A   Unknown
1:00 AM 62.6 °F 51.8 °F 68% 30.18 in 6.2 mi SSW 5.8 mph - N/A   Unknown
1:30 AM 62.6 °F 51.8 °F 68% 30.18 in 6.2 mi South 4.6 mph - N/A   Unknown
2:00 AM 60 °F 53 °F 69% 30.18 in 34 mi South 4.6 mph - -   Clear
2:00 AM 60.8 °F 51.8 °F 72% 30.18 in 6.2 mi South 4.6 mph - N/A   Unknown
2:30 AM 59.0 °F 51.8 °F 77% 30.15 in 6.2 mi South 3.5 mph - N/A   Unknown
3:00 AM 59.0 °F 51.8 °F 77% 30.15 in 6.2 mi SSW 4.6 mph - N/A   Unknown
3:30 AM 59.0 °F 51.8 °F 77% 30.15 in 6.2 mi South 3.5 mph - N/A   Unknown
4:00 AM 57.2 °F 51.8 °F 82% 30.15 in 6.2 mi South 3.5 mph - N/A   Unknown
4:30 AM 57.2 °F 53.6 °F 88% 30.15 in 6.2 mi South 3.5 mph - N/A   Unknown
5:00 AM 57.2 °F 51.8 °F 82% 30.12 in 6.2 mi SSW 3.5 mph - N/A   Unknown
5:30 AM 57.2 °F 51.8 °F 82% 30.12 in 6.2 mi South 3.5 mph - N/A   Unknown
6:00 AM 55.4 °F 51.8 °F 88% 30.12 in 6.2 mi South 3.5 mph - N/A   Unknown
6:30 AM 55.4 °F 51.8 °F 88% 30.12 in 6.2 mi South 3.5 mph - N/A   Unknown
7:00 AM 55.4 °F 53.6 °F 94% 30.12 in 6.2 mi Variable 1.2 mph - N/A   Partly Cloudy
7:30 AM 55.4 °F 51.8 °F 88% 30.12 in 6.2 mi South 3.5 mph - N/A   Partly Cloudy
8:00 AM 57 °F 53 °F 84% 30.14 in 19 mi South 3.5 mph - -  
8:00 AM 57.2 °F 53.6 °F 88% 30.12 in 6.2 mi South 3.5 mph - N/A   Partly Cloudy
8:30 AM 59.0 °F 55.4 °F 88% 30.12 in 6.2 mi South 4.6 mph - N/A   Unknown
9:00 AM 60.8 °F 55.4 °F 82% 30.15 in 6.2 mi South 3.5 mph - N/A   Unknown
9:30 AM 62.6 °F 55.4 °F 77% 30.15 in 6.2 mi Variable 2.3 mph - N/A   Unknown
10:00 AM 66.2 °F 55.4 °F 68% 30.15 in 6.2 mi Variable 1.2 mph - N/A   Partly Cloudy
10:30 AM 69.8 °F 55.4 °F 60% 30.15 in 6.2 mi Calm Calm - N/A   Unknown
11:00 AM 71.6 °F 55.4 °F 57% 30.12 in 6.2 mi Variable 2.3 mph - N/A   Unknown
11:30 AM 73.4 °F 55.4 °F 53% 30.12 in 6.2 mi Variable 2.3 mph - N/A   Partly Cloudy
12:00 PM 77.0 °F 55.4 °F 47% 30.12 in 6.2 mi Variable 2.3 mph - N/A   Unknown
12:30 PM 78.8 °F 53.6 °F 42% 30.12 in 6.2 mi Variable 3.5 mph - N/A   Unknown
1:00 PM 78.8 °F 51.8 °F 39% 30.12 in 6.2 mi North 4.6 mph - N/A   Unknown
1:30 PM 80.6 °F 50.0 °F 34% 30.09 in 6.2 mi Variable 2.3 mph - N/A   Partly Cloudy
2:00 PM 82 °F 47 °F 19% 30.09 in 25 mi WSW 2.3 mph - -  
2:00 PM 82.4 °F 46.4 °F 28% 30.09 in 6.2 mi Variable 2.3 mph - N/A   Unknown
2:30 PM 84.2 °F 50.0 °F 30% 30.09 in 6.2 mi Variable 3.5 mph - N/A   Unknown
3:00 PM 84.2 °F 50.0 °F 30% 30.09 in 6.2 mi NW 4.6 mph - N/A   Partly Cloudy
3:30 PM 86.0 °F 50.0 °F 29% 30.06 in 6.2 mi Variable 2.3 mph - N/A   Unknown
4:00 PM 86.0 °F 48.2 °F 27% 30.06 in 6.2 mi North 4.6 mph - N/A   Partly Cloudy
4:30 PM 87.8 °F 48.2 °F 25% 30.06 in 6.2 mi North 4.6 mph - N/A   Unknown
5:00 PM 87.8 °F 48.2 °F 25% 30.04 in 6.2 mi Variable 5.8 mph - N/A   Unknown
5:30 PM 87.8 °F 46.4 °F 24% 30.04 in 6.2 mi Variable 3.5 mph - N/A   Partly Cloudy
6:00 PM 87.8 °F 42.8 °F 21% 30.04 in 6.2 mi NE 6.9 mph - N/A   Unknown
6:30 PM 87.8 °F 44.6 °F 22% 30.01 in 6.2 mi East 4.6 mph - N/A   Partly Cloudy
7:00 PM 87.8 °F 39.2 °F 18% 30.01 in 6.2 mi East 5.8 mph - N/A   Partly Cloudy
7:30 PM 86.0 °F 44.6 °F 23% 30.01 in 6.2 mi NE 5.8 mph - N/A   Unknown
8:00 PM 85 °F 44 °F 14% 29.99 in 34 mi NNE 5.8 mph - -   Clear
8:00 PM 84.2 °F 44.6 °F 25% 30.01 in 6.2 mi NNE 5.8 mph - N/A   Partly Cloudy
8:30 PM 82.4 °F 44.6 °F 26% 30.01 in 6.2 mi NE 5.8 mph - N/A   Unknown
9:00 PM 82.4 °F 44.6 °F 26% 30.01 in 6.2 mi NE 5.8 mph - N/A   Partly Cloudy
9:30 PM 78.8 °F 48.2 °F 34% 30.01 in 6.2 mi ESE 8.1 mph - N/A   Partly Cloudy
10:00 PM 77.0 °F 48.2 °F 36% 30.01 in 6.2 mi SE 6.9 mph - N/A   Unknown
10:30 PM 77.0 °F 48.2 °F 36% 30.01 in 6.2 mi SE 9.2 mph - N/A   Unknown
11:00 PM 75.2 °F 48.2 °F 38% 30.01 in 6.2 mi SE 11.5 mph - N/A   Unknown
11:30 PM 73.4 °F 50.0 °F 44% 30.01 in 6.2 mi SE 10.4 mph - N/A   Unknown